Location: Dal�� Lhota
(48.7500°N, 14.0167°E)
Time: 18:34:20
(UTC+00:00)

Vanguard 3 - Pass Details

Date: 07 August 2021
Orbit: 510 x 3260 km, 33.3° (Epoch: 20 September)

Event Time Altitude Azimuth Distance (km) Brightness Sun altitude
Rises 19:24:01 0° 267° (W) 5,922 12.4 -8.1°
Reaches altitude 10° 19:27:51 10° 260° (W) 5,237 11.9 -8.6°
Maximum altitude 19:42:24 39° 200° (SSW) 4,133 10.5 -10.5°
Enters shadow 19:58:06 13° 144° (SE) 5,866 10.9 -12.4°
Drops below altitude 10° 19:59:30 10° 141° (SE) 6,094 - -12.6°
Sets 20:04:29 0° 135° (SE) 6,948 - -13.2°
